Regional Weather Roundup
Issued by NWS

Home | Current Version | Previous Version | Text Only | Print | Product List | Glossary Off
Versions: 1 2 3 4 5 6 7 8 9 10 11 12 13 14 15 16 17 18 19 20 21 22 23 24 25 26 27 28 29 30 31 32 33 34 35 36 37 38 39 40 41 42 43 44 45 46 47 48 49 50

000
ASUS43 KOAX 300102
RWRNE

WEATHER ROUNDUP FOR NEBRASKA
NATIONAL WEATHER SERVICE OMAHA NE
800 PM CDT FRI MAY 29 2015

NOTES: SATELLITE DATA IS BEING USED TO AUGMENT CLOUD COVER ABOVE
       12000 FEET.
       "FAIR" INDICATES FEW OR NO CLOUDS BELOW 12,000 FEET WITH NO
       SIGNIFICANT WEATHER AND/OR OBSTRUCTIONS TO VISIBILITY.

  * THESE STATIONS DO NOT REPORT WEATHER SUCH AS RAIN...SNOW OR FOG.

NEZ001>004-019>022-054>056-300200-
NEBRASKA PANHANDLE

CITY           SKY/WX    TMP DP  RH WIND       PRES   REMARKS
SCOTTSBLUFF    CLOUDY    51  47  86 N8        30.29R
ALLIANCE       CLOUDY    48  45  89 N17       30.26R
CHADRON        CLOUDY    50  45  83 CALM      30.29S
SIDNEY         CLOUDY    50  45  83 N13       30.27R
$$

NEZ057>060-069>072-079>082-300200-
SOUTHWEST NEBRASKA

CITY           SKY/WX    TMP DP  RH WIND       PRES   REMARKS
NORTH PLATTE   PTSUNNY   52  47  83 N15G28    30.18R
IMPERIAL       CLOUDY    55  47  74 N22G28    30.20R
MCCOOK         CLOUDY    57  49  74 N22       30.15R
$$

NEZ005>010-023>029-035>040-094-300200-
NORTH CENTRAL NEBRASKA

CITY           SKY/WX    TMP DP  RH WIND       PRES   REMARKS
VALENTINE      CLOUDY    48  45  89 N13       30.25R
BROKEN BOW     CLOUDY    53  46  77 N32G46    30.14F
ORD            LGT RAIN  51  47  86 N22G31    30.13R
$$

NEZ041-046>049-061>064-073>077-083>087-300200-
SOUTH CENTRAL NEBRASKA

CITY           SKY/WX    TMP DP  RH WIND       PRES   REMARKS
GRAND ISLAND   CLOUDY    57  49  74 N24G36    30.10R
HASTINGS       CLOUDY    58  50  75 N23G35    30.08R
KEARNEY *      CLOUDY    57  46  67 N24G30    30.11R
$$

NEZ011>018-030>034-042>045-300200-
NORTHEAST NEBRASKA

CITY           SKY/WX    TMP DP  RH WIND       PRES   REMARKS
NORFOLK        LGT RAIN  53  51  93 NW28G36   30.07R
BLAIR          CLOUDY    66  60  81 N20G26    29.95R
COLUMBUS *     CLOUDY    57  48  72 NW23G29   30.06R
TEKAMAH        CLOUDY    63  57  81 N30G37    29.98R
$$

NEZ050>053-065>068-078-088>093-300200-
SOUTHEAST NEBRASKA

CITY           SKY/WX    TMP DP  RH WIND       PRES   REMARKS
LINCOLN        MOCLDY    69  59  70 N28G36    29.96R
OMAHA EPPLEY   CLOUDY    68  64  87 N15       29.92R
FALLS CITY     MOCLDY    72  66  81 S7        29.91R
$$

NEZ044-045-051>053-067-300200-
OMAHA AREA

CITY           SKY/WX    TMP DP  RH WIND       PRES   REMARKS
OMAHA EPPLEY   CLOUDY    68  64  87 N15       29.92R
BLAIR          CLOUDY    66  60  81 N20G26    29.95R
OFFUTT AFB     TSTM      66  63  88 NW12      29.92R FOG
$$



USA.gov is the U.S. government's official web portal to all federal, state and local government web resources and services.